KAC102 OTHH-OKKK

Flight info

Callsign KAC102
Flight time N/A
Altitude 26000
Route TULUB B457 BHR A453 DEBTI
Aircraft A339/H-SADE1E2E3GHIJ3J5M1P2RWXY/LB2D1

Departure

Time 2026-05-03 21:04
Airport Hamad International Airport (OTHH)

Arrival

Time N/A
Airport Kuwait International Airport (OKKK)
Time Latitude Longitude Altitude Speed Heading
2026-05-03 20:16 25.27027 51.60954 35 ft 0 kts 158°
2026-05-03 20:52 25.27044 51.60946 35 ft 4 kts 158°
2026-05-03 20:52 25.27070 51.60935 34 ft 4 kts 160°
2026-05-03 20:52 25.27093 51.60926 34 ft 3 kts 168°
2026-05-03 20:53 25.27111 51.60922 36 ft 2 kts 194°
2026-05-03 20:53 25.27123 51.60925 36 ft 2 kts 222°
2026-05-03 20:53 25.27132 51.60933 35 ft 2 kts 238°
2026-05-03 20:53 25.27138 51.60943 34 ft 2 kts 244°
2026-05-03 20:54 25.27140 51.60949 32 ft 0 kts 246°
2026-05-03 20:57 25.27136 51.60939 34 ft 5 kts 246°
2026-05-03 20:58 25.27116 51.60884 36 ft 11 kts 248°
2026-05-03 20:58 25.27081 51.60788 36 ft 16 kts 248°
2026-05-03 20:58 25.27076 51.60696 36 ft 10 kts 302°
2026-05-03 20:58 25.27148 51.60653 36 ft 14 kts 335°
2026-05-03 20:59 25.27185 51.60564 36 ft 15 kts 263°
2026-05-03 20:59 25.27141 51.60437 36 ft 20 kts 249°
2026-05-03 20:59 25.27084 51.60279 36 ft 22 kts 246°
2026-05-03 20:59 25.27043 51.60168 35 ft 8 kts 248°
2026-05-03 21:00 25.26996 51.60115 34 ft 12 kts 197°
2026-05-03 21:00 25.26967 51.60117 33 ft 13 kts 171°
2026-05-03 21:00 25.26778 51.60202 34 ft 22 kts 156°
2026-05-03 21:00 25.26623 51.60268 34 ft 26 kts 158°
2026-05-03 21:01 25.26446 51.60346 35 ft 29 kts 158°
2026-05-03 21:01 25.26245 51.60435 35 ft 33 kts 158°
2026-05-03 21:01 25.26023 51.60533 35 ft 36 kts 158°
2026-05-03 21:01 25.25805 51.60628 35 ft 12 kts 158°
2026-05-03 21:02 25.25739 51.60646 35 ft 12 kts 183°
2026-05-03 21:02 25.25702 51.60609 33 ft 0 kts 236°
2026-05-03 21:02 25.25695 51.60585 33 ft 7 kts 250°
2026-05-03 21:02 25.25681 51.60503 31 ft 14 kts 277°
2026-05-03 21:03 25.25744 51.60448 33 ft 13 kts 347°
2026-05-03 21:03 25.25801 51.60425 34 ft 0 kts 336°
2026-05-03 21:03 25.25809 51.60421 34 ft 2 kts 336°
2026-05-03 21:03 25.25827 51.60413 34 ft 4 kts 337°
2026-05-03 21:04 25.26030 51.60323 35 ft 74 kts 338°
2026-05-03 21:04 25.26784 51.59992 32 ft 154 kts 338°
2026-05-03 21:04 25.27889 51.59513 477 ft 180 kts 339°
2026-05-03 21:04 25.29108 51.58995 1140 ft 193 kts 340°
2026-05-03 21:05 25.30360 51.58449 1898 ft 197 kts 340°
2026-05-03 21:05 25.31676 51.57851 2536 ft 211 kts 339°
2026-05-03 21:05 25.33080 51.57202 3044 ft 226 kts 337°
2026-05-03 21:05 25.34574 51.56468 3429 ft 244 kts 335°
2026-05-03 21:06 25.36179 51.55691 3705 ft 258 kts 338°
2026-05-03 21:06 25.37879 51.54987 4191 ft 263 kts 339°
2026-05-03 21:06 25.39015 51.54524 4629 ft 263 kts 338°
2026-05-03 21:06 25.41311 51.53551 5491 ft 265 kts 336°
2026-05-03 21:07 25.42451 51.53052 5924 ft 267 kts 336°
2026-05-03 21:07 25.44178 51.52294 6573 ft 268 kts 335°
2026-05-03 21:07 25.45919 51.51529 7208 ft 270 kts 335°
2026-05-03 21:07 25.47696 51.50833 7826 ft 275 kts 343°
2026-05-03 21:08 25.49628 51.50738 8458 ft 285 kts
2026-05-03 21:08 25.51570 51.51312 9076 ft 293 kts 12°
2026-05-03 21:08 25.53573 51.52007 9298 ft 311 kts 12°
2026-05-03 21:08 25.55707 51.52722 9467 ft 329 kts 11°
2026-05-03 21:09 25.57941 51.53458 9854 ft 338 kts 11°
2026-05-03 21:09 25.60171 51.54192 10449 ft 338 kts 12°
2026-05-03 21:09 25.62428 51.54933 11056 ft 339 kts 12°
2026-05-03 21:09 25.64720 51.55492 11612 ft 336 kts
2026-05-03 21:10 25.67043 51.55395 12223 ft 333 kts 348°
2026-05-03 21:10 25.69264 51.54704 12808 ft 333 kts 340°
2026-05-03 21:10 25.71477 51.53880 13324 ft 337 kts 341°
2026-05-03 21:10 25.73714 51.53064 13850 ft 340 kts 341°
2026-05-03 21:11 25.75977 51.52251 14341 ft 343 kts 341°
2026-05-03 21:11 25.78262 51.51435 14821 ft 346 kts 341°
2026-05-03 21:11 25.80571 51.50610 15307 ft 350 kts 341°
2026-05-03 21:11 25.82864 51.49687 15756 ft 352 kts 333°
2026-05-03 21:12 25.84930 51.48233 16243 ft 353 kts 320°
2026-05-03 21:12 25.86642 51.46267 16726 ft 355 kts 307°
2026-05-03 21:12 25.88134 51.44077 17235 ft 357 kts 306°
2026-05-03 21:12 25.89629 51.41913 17737 ft 359 kts 307°
2026-05-03 21:13 25.91162 51.39716 18199 ft 362 kts 307°
2026-05-03 21:13 25.92715 51.37501 18634 ft 364 kts 307°
2026-05-03 21:13 25.94276 51.35273 19055 ft 367 kts 307°
2026-05-03 21:13 25.95849 51.33028 19480 ft 370 kts 307°
2026-05-03 21:14 25.97362 51.30699 19865 ft 373 kts 301°
2026-05-03 21:14 25.98614 51.28171 20326 ft 374 kts 296°
2026-05-03 21:14 25.99805 51.25585 20756 ft 377 kts 296°
2026-05-03 21:14 26.01016 51.22988 21213 ft 380 kts 296°
2026-05-03 21:15 26.02242 51.20369 21663 ft 383 kts 296°
2026-05-03 21:15 26.03474 51.17739 22163 ft 384 kts 296°
2026-05-03 21:15 26.04709 51.15101 22687 ft 386 kts 296°
2026-05-03 21:15 26.05952 51.12442 23122 ft 389 kts 296°
2026-05-03 21:16 26.07207 51.09755 23563 ft 392 kts 296°
2026-05-03 21:16 26.08468 51.07052 24005 ft 393 kts 296°
2026-05-03 21:16 26.09726 51.04355 24465 ft 394 kts 296°
2026-05-03 21:16 26.10992 51.01641 24917 ft 395 kts 296°
2026-05-03 21:17 26.12231 50.98906 25346 ft 396 kts 294°
2026-05-03 21:17 26.12997 50.97066 25638 ft 397 kts 293°
2026-05-03 21:17 26.14508 50.93304 25793 ft 397 kts 292°
2026-05-03 21:17 26.15632 50.90500 25888 ft 397 kts 292°
2026-05-03 21:18 26.16767 50.87697 25987 ft 398 kts 292°
2026-05-03 21:18 26.17910 50.84894 26002 ft 397 kts 292°
2026-05-03 21:18 26.19058 50.82093 26003 ft 397 kts 292°
2026-05-03 21:18 26.20188 50.79336 26002 ft 397 kts 292°
2026-05-03 21:19 26.21335 50.76538 26003 ft 397 kts 292°
2026-05-03 21:19 26.22479 50.73745 26003 ft 397 kts 292°
2026-05-03 21:19 26.23626 50.70942 26004 ft 400 kts 292°
2026-05-03 21:19 26.25029 50.68201 26004 ft 416 kts 304°
2026-05-03 21:20 26.27018 50.65800 26005 ft 427 kts 316°
2026-05-03 21:20 26.29476 50.63909 26001 ft 433 kts 328°
2026-05-03 21:20 26.32270 50.62591 26001 ft 438 kts 336°
2026-05-03 21:20 26.35167 50.61528 26006 ft 438 kts 338°
2026-05-03 21:21 26.38067 50.60494 26004 ft 438 kts 338°
2026-05-03 21:21 26.40960 50.59420 26004 ft 438 kts 337°
2026-05-03 21:21 26.43851 50.58356 26005 ft 438 kts 338°
2026-05-03 21:21 26.46753 50.57307 26005 ft 438 kts 338°
2026-05-03 21:22 26.49646 50.56254 26004 ft 438 kts 338°
2026-05-03 21:22 26.52546 50.55189 26005 ft 438 kts 337°
2026-05-03 21:22 26.55442 50.54117 26006 ft 437 kts 337°
2026-05-03 21:22 26.58288 50.53055 26005 ft 437 kts 337°
2026-05-03 21:23 26.61169 50.51972 26005 ft 437 kts 337°
2026-05-03 21:23 26.64046 50.50889 26004 ft 437 kts 337°
2026-05-03 21:23 26.66915 50.49776 26002 ft 435 kts 334°
2026-05-03 21:23 26.69629 50.48322 26005 ft 431 kts 326°
2026-05-03 21:24 26.72114 50.46478 26006 ft 426 kts 319°
2026-05-03 21:24 26.74334 50.44308 26013 ft 423 kts 312°
2026-05-03 21:24 26.76460 50.42027 26007 ft 421 kts 313°
2026-05-03 21:24 26.78593 50.39765 26005 ft 423 kts 313°
2026-05-03 21:25 26.80733 50.37504 26000 ft 423 kts 313°
2026-05-03 21:25 26.82875 50.35243 26003 ft 423 kts 313°
2026-05-03 21:25 26.85013 50.32980 26005 ft 423 kts 313°
2026-05-03 21:25 26.87124 50.30744 26002 ft 423 kts 313°
2026-05-03 21:26 26.89263 50.28475 26005 ft 423 kts 313°
2026-05-03 21:26 26.91405 50.26201 26015 ft 423 kts 313°
2026-05-03 21:26 26.93539 50.23937 26008 ft 421 kts 312°
2026-05-03 21:26 26.95666 50.21678 26005 ft 422 kts 312°
2026-05-03 21:27 26.97797 50.19411 26006 ft 422 kts 312°
2026-05-03 21:27 26.99929 50.17143 26009 ft 423 kts 312°
2026-05-03 21:27 27.02065 50.14870 26009 ft 423 kts 312°
2026-05-03 21:27 27.04196 50.12593 26008 ft 422 kts 311°
2026-05-03 21:28 27.06140 50.10201 26009 ft 420 kts 306°
2026-05-03 21:28 27.08027 50.07695 26010 ft 420 kts 307°
2026-05-03 21:28 27.09921 50.05202 26006 ft 419 kts 307°
2026-05-03 21:28 27.11810 50.02723 26005 ft 418 kts 307°
2026-05-03 21:29 27.13701 50.00238 26006 ft 419 kts 307°
2026-05-03 21:29 27.15594 49.97751 26006 ft 419 kts 306°
2026-05-03 21:29 27.17485 49.95261 26007 ft 419 kts 306°
2026-05-03 21:29 27.19379 49.92768 26005 ft 420 kts 306°
2026-05-03 21:30 27.21271 49.90274 26007 ft 419 kts 306°
2026-05-03 21:30 27.23162 49.87781 26011 ft 419 kts 306°
2026-05-03 21:30 27.25054 49.85285 26014 ft 419 kts 306°
2026-05-03 21:30 27.26945 49.82788 26009 ft 419 kts 306°
2026-05-03 21:31 27.28836 49.80291 26007 ft 419 kts 306°
2026-05-03 21:31 27.30725 49.77794 26010 ft 419 kts 306°
2026-05-03 21:31 27.32569 49.75356 26013 ft 419 kts 306°
2026-05-03 21:31 27.34460 49.72854 26009 ft 420 kts 306°
2026-05-03 21:32 27.36354 49.70346 26011 ft 421 kts 306°
2026-05-03 21:32 27.38243 49.67844 26007 ft 420 kts 306°
2026-05-03 21:32 27.40138 49.65333 26021 ft 420 kts 306°
2026-05-03 21:32 27.42001 49.62864 25998 ft 418 kts 306°
2026-05-03 21:33 27.43906 49.60337 26008 ft 419 kts 306°
2026-05-03 21:33 27.45766 49.57866 26013 ft 419 kts 306°
2026-05-03 21:33 27.47690 49.55397 26016 ft 421 kts 309°
2026-05-03 21:33 27.49846 49.53144 25998 ft 425 kts 315°
2026-05-03 21:34 27.52179 49.51078 26004 ft 427 kts 317°
2026-05-03 21:34 27.54510 49.49005 25999 ft 427 kts 316°
2026-05-03 21:34 27.55008 49.48560 26009 ft 427 kts 316°
2026-05-03 21:34 27.56885 49.46879 26014 ft 427 kts 316°
2026-05-03 21:35 27.59201 49.44802 26004 ft 425 kts 316°
2026-05-03 21:35 27.61519 49.42721 26005 ft 426 kts 316°
2026-05-03 21:35 27.63836 49.40640 26006 ft 426 kts 316°
2026-05-03 21:35 27.66150 49.38561 26004 ft 426 kts 316°
2026-05-03 21:36 27.68465 49.36481 26007 ft 426 kts 316°
2026-05-03 21:36 27.70780 49.34401 26005 ft 425 kts 316°
2026-05-03 21:36 27.73097 49.32317 26006 ft 425 kts 316°
2026-05-03 21:36 27.75411 49.30235 26009 ft 425 kts 316°
2026-05-03 21:37 27.77722 49.28155 26007 ft 425 kts 316°
2026-05-03 21:37 27.80027 49.26078 26008 ft 425 kts 316°
2026-05-03 21:37 27.82301 49.24028 26009 ft 425 kts 316°
2026-05-03 21:37 27.84591 49.21962 26010 ft 425 kts 316°
2026-05-03 21:38 27.86868 49.19933 26006 ft 426 kts 318°
2026-05-03 21:38 27.89365 49.18087 26005 ft 432 kts 324°
2026-05-03 21:38 27.91978 49.16402 26016 ft 432 kts 324°
2026-05-03 21:38 27.94555 49.14724 26008 ft 430 kts 324°
2026-05-03 21:39 27.97146 49.13026 26005 ft 430 kts 324°
2026-05-03 21:39 27.99719 49.11338 25951 ft 423 kts 323°
2026-05-03 21:39 28.02229 49.09694 25848 ft 411 kts 323°
2026-05-03 21:39 28.04665 49.08098 25739 ft 398 kts 323°
2026-05-03 21:40 28.06977 49.06582 25595 ft 383 kts 323°
2026-05-03 21:40 28.09216 49.05113 25476 ft 368 kts 323°
2026-05-03 21:40 28.11386 49.03688 25257 ft 355 kts 322°
2026-05-03 21:40 28.13512 49.02284 24770 ft 353 kts 322°
2026-05-03 21:41 28.15627 49.00881 24260 ft 351 kts 323°
2026-05-03 21:41 28.17734 48.99487 23769 ft 350 kts 323°
2026-05-03 21:41 28.19831 48.98101 23259 ft 348 kts 323°
2026-05-03 21:41 28.21915 48.96725 22739 ft 345 kts 323°
2026-05-03 21:42 28.23977 48.95365 22233 ft 341 kts 323°
2026-05-03 21:42 28.26018 48.94018 21731 ft 338 kts 323°
2026-05-03 21:42 28.28011 48.92701 21244 ft 334 kts 323°
2026-05-03 21:42 28.30000 48.91386 20810 ft 330 kts 323°
2026-05-03 21:43 28.31977 48.90077 20316 ft 327 kts 324°
2026-05-03 21:43 28.33934 48.88780 19831 ft 324 kts 324°
2026-05-03 21:43 28.35877 48.87493 19359 ft 321 kts 324°
2026-05-03 21:43 28.37800 48.86219 18884 ft 319 kts 324°
2026-05-03 21:44 28.39703 48.84957 18423 ft 316 kts 324°
2026-05-03 21:44 28.41591 48.83705 17932 ft 313 kts 324°
2026-05-03 21:44 28.43462 48.82464 17391 ft 310 kts 324°
2026-05-03 21:44 28.45318 48.81230 16848 ft 308 kts 325°
2026-05-03 21:45 28.47162 48.80005 16323 ft 306 kts 325°
2026-05-03 21:45 28.48991 48.78789 15796 ft 303 kts 326°
2026-05-03 21:45 28.50806 48.77582 15272 ft 301 kts 326°
2026-05-03 21:45 28.52610 48.76382 14747 ft 299 kts 326°
2026-05-03 21:46 28.54400 48.75191 14232 ft 297 kts 326°
2026-05-03 21:46 28.56175 48.74010 13717 ft 295 kts 327°
2026-05-03 21:46 28.57936 48.72839 13160 ft 292 kts 327°
2026-05-03 21:46 28.59840 48.72035 12563 ft 295 kts 348°
2026-05-03 21:47 28.61893 48.72156 12010 ft 299 kts 11°
2026-05-03 21:47 28.63772 48.73189 11459 ft 304 kts 32°
2026-05-03 21:47 28.65232 48.74917 10934 ft 307 kts 52°
2026-05-03 21:47 28.66104 48.77137 10420 ft 309 kts 73°
2026-05-03 21:48 28.66224 48.79524 10225 ft 298 kts 94°
2026-05-03 21:48 28.65670 48.81765 9844 ft 293 kts 115°
2026-05-03 21:48 28.64491 48.83636 9304 ft 292 kts 136°
2026-05-03 21:48 28.62839 48.84945 8752 ft 288 kts 153°
2026-05-03 21:49 28.61097 48.86036 8415 ft 279 kts 152°
2026-05-03 21:49 28.59369 48.87146 8321 ft 290 kts 151°
2026-05-03 21:49 28.57627 48.88288 8219 ft 288 kts 150°
2026-05-03 21:49 28.55923 48.89417 8114 ft 288 kts 150°
2026-05-03 21:50 28.54193 48.90568 8019 ft 287 kts 150°
2026-05-03 21:50 28.52464 48.91700 7998 ft 286 kts 154°
2026-05-03 21:50 28.50578 48.92392 8002 ft 285 kts 174°
2026-05-03 21:50 28.48623 48.92328 7999 ft 280 kts 195°
2026-05-03 21:51 28.47602 48.91973 8004 ft 277 kts 207°
2026-05-03 21:51 28.46413 48.91216 8001 ft 272 kts 221°
2026-05-03 21:51 28.45104 48.89708 8007 ft 266 kts 239°
2026-05-03 21:51 28.44298 48.87864 8009 ft 260 kts 257°
2026-05-03 21:52 28.44028 48.85897 8006 ft 254 kts 274°
2026-05-03 21:52 28.44276 48.83949 8009 ft 250 kts 290°
2026-05-03 21:52 28.45011 48.82175 8009 ft 248 kts 306°
2026-05-03 21:52 28.46159 48.80731 8007 ft 247 kts 321°
2026-05-03 21:53 28.47611 48.79693 8008 ft 247 kts 331°
2026-05-03 21:53 28.49117 48.78749 8008 ft 248 kts 330°
2026-05-03 21:53 28.50616 48.77777 8007 ft 247 kts 329°
2026-05-03 21:53 28.52104 48.76793 8007 ft 247 kts 329°
2026-05-03 21:54 28.53086 48.76139 8008 ft 247 kts 329°
2026-05-03 21:54 28.54089 48.75469 8007 ft 247 kts 329°